Flag for Malaysia Weather past 2 weeks in Kuala Lumpur, Malaysia

Now
77 °F

Partly cloudy.


Feels Like: 78 °F
Forecast: 76 / 91 °F
Wind: 1 mph from Northeast

Location: Sultan Abdul Aziz Shah-Subang

Current Time: Mar 29, 2015 at 1:49:57 AM

Latest Report: Mar 29, 2015 at 1:00 AM


Visibility: 5 mi

Pressure: 29.86 "Hg

Humidity: 94%

Dew point: 75 °F

Location of Kuala LumpurLocation

Historic Weather in Kuala Lumpur — Graph

°F

Kuala Lumpur temperature yesterday

Maximum temperature yesterday: 95 °F (at 3:00 PM)
Minimum temperature yesterday: 75 °F (at 8:00 PM)
Average temperature yesterday: 84 °F

Past Weeks' High & Low Weather Summary

 TemperatureHumidityPressure
High97 °F (Mar 26, 4:00 PM)94% (Mar 18, 8:00 AM)29.98 "Hg (Mar 18, 8:00 AM)
Low75 °F (Mar 14, 5:00 AM)44% (Mar 14, 6:00 PM)29.71 "Hg (Mar 18, 5:00 PM)
Average84 °F77%29.86 "Hg
* Reported Midnight between Mar 13 and Mar 14 — Midnight between Mar 28 and Mar 29, Kuala Lumpur, Weather by CustomWeather, © 2015

Note: Actual official high and low records may vary slightly from our data, if they occured in-between our weather recording intervals... More about our weather records

Advertising

Kuala Lumpur weather history for previous 24 hours

 ConditionsComfort  
Time TempWeatherWind HumidityBarometerVisibility
12:00 AM
Sun, Mar 29
79 °FPartly cloudy.2 mph89%29.86 "Hg5 mi
11:00 PM
Sat, Mar 28
79 °FPartly cloudy.5 mph89%29.89 "Hg5 mi
10:00 PM77 °FPartly cloudy.No wind94%29.86 "Hg5 mi
9:00 PM77 °FThunderstorms. Partly cloudy.2 mph89%29.86 "Hg5 mi
8:00 PM75 °FThunderstorms. More clouds than sun.3 mph94%29.83 "Hg5 mi
7:00 PM77 °FThunderstorms. Broken clouds.13 mph89%29.77 "Hg2 mi
6:00 PM91 °FThunderstorms. Broken clouds.9 mph63%29.74 "HgN/A
5:00 PM93 °FBroken clouds.10 mph59%29.71 "HgN/A
4:00 PM93 °FBroken clouds.12 mph59%29.74 "HgN/A
3:00 PM95 °FBroken clouds.2 mph50%29.77 "HgN/A
2:00 PM93 °FBroken clouds.3 mph53%29.83 "HgN/A
1:00 PM93 °FBroken clouds.3 mph53%29.83 "HgN/A
12:00 PM91 °FBroken clouds.6 mph56%29.86 "HgN/A
11:00 AM90 °FPartly sunny.5 mph59%29.89 "HgN/A
10:00 AM86 °FPartly sunny.2 mph70%29.89 "HgN/A
9:00 AM82 °FPartly sunny.2 mph79%29.89 "HgN/A
8:00 AM79 °FPassing clouds.1 mph89%29.86 "HgN/A
7:00 AM77 °FPartly cloudy.2 mph89%29.86 "Hg6 mi
6:00 AM79 °FPassing clouds.1 mph84%29.83 "Hg6 mi
5:00 AM79 °FPassing clouds.1 mph84%29.83 "Hg6 mi
4:00 AM81 °FPassing clouds.2 mph79%29.83 "Hg6 mi
3:00 AM81 °FPartly cloudy.1 mph79%29.86 "Hg6 mi
2:00 AM81 °FPassing clouds.No wind89%29.89 "Hg6 mi
1:00 AM81 °FPartly cloudy.1 mph89%29.89 "Hg5 mi
Weather by CustomWeather, © 2015

See weather overviewHow to use our weather pages